EW2142 Gothenburg SE current weather conditions

sailwx.info

Wind from 296 at 0 knots gusting 5

Air temperature 6.1° C
Dewpoint 2.6° C

Last reported at 2019-Dec-07 13:55 UTC.
Time now 2019-Dec-07 15:05 UTC

Location: N 57°48' E 011°60'.
View on Google Maps.

See reports from other nearby stations

  
Tides and Currents Weather Stations Pressure Air Temp Water Temp Dewpoint Dewpoint Depression Visibility Wind Speed Wind Dir Waves Ship Positions
date/time (UTC)wind fromknots sea level pressurealtimeterstation pressurevisibilityair tempwater tempwave heightnotes
2019-Dec-07 13:55 296 0 gusting 5 6.1
2019-Dec-07 13:50 302 0 gusting 5 6.1
2019-Dec-07 13:45 304 6.1
2019-Dec-07 13:40 304 6.1
2019-Dec-07 13:35 308 0 gusting 5 6.1
2019-Dec-07 13:25 317 0 gusting 7 6.1
2019-Dec-07 13:15 314 0 gusting 5 6.1
2019-Dec-07 13:05 300 0 gusting 5 6.1
2019-Dec-07 13:00 296 0 gusting 5 6.1
2019-Dec-07 12:55 302 0 gusting 3 6.1
2019-Dec-07 12:50 303 0 gusting 6 6.7
2019-Dec-07 12:45 304 1 gusting 6 6.7
2019-Dec-07 12:40 311 0 gusting 5 6.7
2019-Dec-07 12:35 314 0 gusting 6 6.7
2019-Dec-07 12:30 309 0 gusting 6 6.7
2019-Dec-07 12:25 299 0 gusting 6 6.7
2019-Dec-07 12:20 301 0 gusting 6 6.7
2019-Dec-07 12:10 305 0 gusting 6 6.7
2019-Dec-07 12:05 304 0 gusting 5 6.7
2019-Dec-07 11:50 302 1 gusting 7 6.7
2019-Dec-07 11:45 306 0 gusting 6 6.7
2019-Dec-07 11:40 312 0 gusting 6 6.7
2019-Dec-07 11:35 294 0 gusting 6 6.7
2019-Dec-07 11:30 294 0 gusting 6 6.7
2019-Dec-07 11:25 298 0 gusting 3 6.7
2019-Dec-07 11:20 302 0 gusting 3 6.7
2019-Dec-07 11:15 301 0 gusting 3 6.7
2019-Dec-07 10:55 295 1 gusting 6 6.7
2019-Dec-07 10:45 306 0 gusting 6 6.7
2019-Dec-07 10:25 308 1 gusting 9 6.7
2019-Dec-07 10:15 281 0 gusting 3 6.7
2019-Dec-07 10:05 292 0 gusting 5 6.7
2019-Dec-07 10:00 299 6.7
2019-Dec-07 09:55 297 0 gusting 6 6.1
2019-Dec-07 09:50 293 0 gusting 6 6.1
2019-Dec-07 09:45 295 1 gusting 5 6.1
2019-Dec-07 09:35 293 1 gusting 5 6.1
2019-Dec-07 09:30 297 1 gusting 6 6.1
2019-Dec-07 09:20 252 6.1
2019-Dec-07 09:15 301 0 gusting 4 6.1
2019-Dec-07 09:10 297 0 gusting 5 6.1
2019-Dec-07 09:05 296 0 gusting 6 6.1
2019-Dec-07 09:00 294 0 gusting 6 6.1
2019-Dec-07 08:50 289 0 gusting 6 6.1
2019-Dec-07 08:45 285 0 gusting 8 6.1
2019-Dec-07 08:40 289 0 gusting 8 6.1
2019-Dec-07 08:30 287 6.1
2019-Dec-07 08:25 302 6.1
2019-Dec-07 08:20 305 0 gusting 6 6.1
2019-Dec-07 08:10 305 0 gusting 4 6.1
2019-Dec-07 08:00 293 0 gusting 5 6.1
2019-Dec-07 07:50 309 0 gusting 5 6.1
2019-Dec-07 07:45 307 0 gusting 4 6.1
2019-Dec-07 07:40 304 0 gusting 4 6.1
2019-Dec-07 07:30 296 6.1
2019-Dec-07 07:20 330 0 gusting 5 6.1
2019-Dec-07 07:15 308 0 gusting 5 6.1
2019-Dec-07 07:10 304 0 gusting 2 6.7
2019-Dec-07 07:05 274 0 gusting 3 6.7
2019-Dec-07 07:00 264 0 gusting 3 6.7
2019-Dec-07 06:50 282 0 gusting 4 6.7
2019-Dec-07 06:45 275 0 gusting 4 7.2
2019-Dec-07 06:25 293 0 gusting 6 7.8
2019-Dec-07 06:20 298 1 gusting 7 7.8
2019-Dec-07 06:15 298 0 gusting 7 7.8
2019-Dec-07 06:10 233 0 gusting 5 7.8
2019-Dec-07 05:55 291 0 gusting 6 7.8
2019-Dec-07 05:50 258 0 gusting 6 7.8
2019-Dec-07 05:45 205 0 gusting 4 7.8
2019-Dec-07 05:40 244 0 gusting 6 7.8
2019-Dec-07 05:35 245 0 gusting 6 7.8
2019-Dec-07 05:20 304 0 gusting 4 7.8
2019-Dec-07 05:10 287 0 gusting 6 7.8
2019-Dec-07 05:00 254 0 gusting 3 7.8
2019-Dec-07 04:55 208 0 gusting 3 7.8
2019-Dec-07 04:50 280 0 gusting 4 7.8
2019-Dec-07 04:20 154 7.8
2019-Dec-07 04:10 268 7.8
2019-Dec-07 04:05 272 7.8
2019-Dec-07 04:00 272 7.8
2019-Dec-07 03:50 307 0 gusting 4 7.8
2019-Dec-07 03:45 300 0 gusting 4 7.8
2019-Dec-07 03:35 265 0 gusting 1 7.8
2019-Dec-07 03:30 283 0 gusting 2 7.8
2019-Dec-07 03:25 271 0 gusting 2 7.8
2019-Dec-07 03:05 281 0 gusting 4 7.8
2019-Dec-07 02:55 271 0 gusting 5 8.3
2019-Dec-07 02:45 252 0 gusting 5 8.3
2019-Dec-07 02:40 245 0 gusting 5 8.3
2019-Dec-07 02:25 162 0 gusting 4 8.3
2019-Dec-07 01:55 251 0 gusting 6 8.3
2019-Dec-07 01:50 218 0 gusting 6 8.3
2019-Dec-07 01:45 187 0 gusting 4 8.3
2019-Dec-07 01:40 181 0 gusting 6 8.3
2019-Dec-07 01:35 188 0 gusting 6 8.3
2019-Dec-07 01:30 228 0 gusting 4 8.3
2019-Dec-07 01:10 235 0 gusting 7 8.3
2019-Dec-07 01:00 213 0 gusting 6 8.3
2019-Dec-07 00:55 256 1 gusting 6 8.3
2019-Dec-07 00:45 232 0 gusting 4 8.3
2019-Dec-07 00:20 205 0 gusting 2 8.3
2019-Dec-07 00:15 221 0 gusting 2 8.3
2019-Dec-07 00:05 207 0 gusting 6 8.3
2019-Dec-06 23:55 220 1 gusting 4 8.3
2019-Dec-06 23:50 215 0 gusting 4 7.8
2019-Dec-06 23:30 264 0 gusting 5 7.8
2019-Dec-06 23:25 156 7.8
2019-Dec-06 23:20 261 7.8
2019-Dec-06 23:15 270 0 gusting 4 7.8
2019-Dec-06 23:10 264 0 gusting 6 7.8
2019-Dec-06 23:00 264 0 gusting 6 7.8
2019-Dec-06 22:50 269 0 gusting 6 7.8
2019-Dec-06 22:45 236 0 gusting 4 7.8
2019-Dec-06 22:40 243 0 gusting 6 7.8
2019-Dec-06 22:35 266 0 gusting 6 7.8
2019-Dec-06 22:30 242 0 gusting 6 7.8
2019-Dec-06 22:20 177 0 gusting 4 7.8
2019-Dec-06 22:05 254 0 gusting 7 7.8
2019-Dec-06 21:55 221 0 gusting 6 7.8
2019-Dec-06 21:50 209 0 gusting 6 7.8
2019-Dec-06 21:45 187 0 gusting 5 7.8
2019-Dec-06 21:40 188 0 gusting 5 7.8
2019-Dec-06 21:35 213 0 gusting 3 7.8
2019-Dec-06 21:30 234 0 gusting 3 7.8
2019-Dec-06 21:25 209 0 gusting 6 7.8
2019-Dec-06 21:20 195 0 gusting 6 7.8
2019-Dec-06 21:10 207 0 gusting 3 7.8
2019-Dec-06 21:05 215 0 gusting 3 7.8
2019-Dec-06 21:00 181 0 gusting 3 7.8
2019-Dec-06 20:55 221 0 gusting 3 7.8
2019-Dec-06 20:45 222 0 gusting 8 7.8
2019-Dec-06 20:35 187 0 gusting 3 7.8
2019-Dec-06 20:30 206 0 gusting 3 7.8
2019-Dec-06 20:20 226 0 gusting 4 7.8
2019-Dec-06 20:15 234 0 gusting 3 7.8
2019-Dec-06 20:10 251 0 gusting 3 7.8
2019-Dec-06 20:00 225 0 gusting 6 7.8
2019-Dec-06 19:50 225 0 gusting 4 7.8
2019-Dec-06 19:25 254 0 gusting 3 7.8
2019-Dec-06 19:20 244 0 gusting 4 7.8
2019-Dec-06 19:10 211 0 gusting 3 7.8
2019-Dec-06 19:05 178 0 gusting 3 7.8
2019-Dec-06 18:50 237 0 gusting 4 7.8
2019-Dec-06 18:40 252 0 gusting 6 8.3
2019-Dec-06 18:35 269 1 gusting 6 8.3
2019-Dec-06 18:30 242 0 gusting 6 8.3
2019-Dec-06 18:25 200 0 gusting 3 8.3
2019-Dec-06 18:20 182 0 gusting 5 8.3
2019-Dec-06 18:05 210 0 gusting 4 8.3
2019-Dec-06 17:30 234 0 gusting 6 8.3
2019-Dec-06 17:25 224 0 gusting 6 8.3
2019-Dec-06 17:10 207 0 gusting 3 8.3
2019-Dec-06 17:00 216 0 gusting 5 8.3
2019-Dec-06 16:55 210 0 gusting 6 8.3
2019-Dec-06 16:50 248 1 gusting 7 8.3
2019-Dec-06 16:40 226 0 gusting 6 8.9
2019-Dec-06 16:35 217 0 gusting 4 8.9
2019-Dec-06 16:30 214 0 gusting 5 8.9
2019-Dec-06 16:25 207 0 gusting 5 8.9
2019-Dec-06 16:10 214 0 gusting 5 8.9
2019-Dec-06 16:05 186 0 gusting 5 8.9
2019-Dec-06 15:55 218 0 gusting 5 8.9
2019-Dec-06 15:50 187 0 gusting 5 8.9
2019-Dec-06 15:40 235 0 gusting 3 8.9
2019-Dec-06 15:35 196 0 gusting 3 8.9
2019-Dec-06 15:30 197 0 gusting 3 8.9
2019-Dec-06 15:25 212 0 gusting 4 8.9
2019-Dec-06 15:20 208 0 gusting 4 8.9
2019-Dec-06 15:15 195 0 gusting 3 8.9
2019-Dec-06 15:05 197 0 gusting 5 8.3
2019-Dec-06 14:55 199 0 gusting 3 8.3
2019-Dec-06 14:50 240 0 gusting 5 8.3
2019-Dec-06 14:45 241 0 gusting 5 8.3
2019-Dec-06 14:40 178 0 gusting 4 8.3
2019-Dec-06 14:35 162 0 gusting 2 8.3
2019-Dec-06 14:30 176 8.3
2019-Dec-06 14:25 218 8.3
2019-Dec-06 14:20 206 8.3
2019-Dec-06 14:15 206 8.3
2019-Dec-06 13:50 200 0 gusting 4 8.3
2019-Dec-06 13:45 179 0 gusting 2 8.3
2019-Dec-06 13:35 271 0 gusting 4 8.3
2019-Dec-06 13:30 250 0 gusting 6 8.3
2019-Dec-06 13:20 225 0 gusting 3 8.3
2019-Dec-06 13:00 245 0 gusting 5 8.3
2019-Dec-06 12:50 246 0 gusting 5 8.3
2019-Dec-06 12:45 282 0 gusting 5 8.3
2019-Dec-06 12:40 269 8.3
2019-Dec-06 12:30 263 0 gusting 7 8.3
2019-Dec-06 12:20 195 0 gusting 5 8.3
2019-Dec-06 12:15 206 0 gusting 5 8.3
2019-Dec-06 12:10 237 0 gusting 6 8.3
2019-Dec-06 12:00 279 0 gusting 6 8.3
2019-Dec-06 11:55 275 1 gusting 6 8.3
2019-Dec-06 11:45 248 1 gusting 8 8.3
2019-Dec-06 11:40 241 1 gusting 8 8.3
2019-Dec-06 11:35 265 0 gusting 6 8.3
2019-Dec-06 11:15 270 0 gusting 6 8.3
2019-Dec-06 11:00 271 0 gusting 4 8.3
2019-Dec-06 10:55 275 0 gusting 6 8.3
2019-Dec-06 10:50 221 0 gusting 6 8.3
2019-Dec-06 10:40 268 1 gusting 9 8.3
2019-Dec-06 10:35 270 0 gusting 9 8.3
2019-Dec-06 10:25 283 0 gusting 4 8.3
2019-Dec-06 10:20 290 0 gusting 6 8.3
2019-Dec-06 10:05 266 0 gusting 5 8.3
2019-Dec-06 09:55 307 1 gusting 9 7.8
2019-Dec-06 09:45 284 0 gusting 6 7.8
2019-Dec-06 09:40 285 0 gusting 6 7.8
2019-Dec-06 09:20 257 0 gusting 5 7.8
2019-Dec-06 09:10 259 0 gusting 5 7.8
2019-Dec-06 09:00 195 0 gusting 4 7.8
2019-Dec-06 08:55 284 0 gusting 4 7.8
2019-Dec-06 08:40 223 1 gusting 8 7.8
2019-Dec-06 08:30 250 1 gusting 6 8.3
2019-Dec-06 08:20 197 0 gusting 6 8.3
2019-Dec-06 08:00 266 0 gusting 5 8.3
2019-Dec-06 07:55 230 0 gusting 6 8.3
2019-Dec-06 07:50 217 0 gusting 6 8.3
2019-Dec-06 07:45 288 1 gusting 9 8.3
2019-Dec-06 07:40 293 1 gusting 9 8.3
2019-Dec-06 07:20 278 1 gusting 6 8.3
2019-Dec-06 07:05 294 2 gusting 10 8.3
2019-Dec-06 07:00 280 1 gusting 8 8.3
2019-Dec-06 06:50 237 1 gusting 5 8.9
2019-Dec-06 06:40 254 1 gusting 6 8.9
2019-Dec-06 06:35 202 0 gusting 6 8.9
2019-Dec-06 06:30 222 0 gusting 6 8.9
2019-Dec-06 06:05 170 1 gusting 5 8.9
2019-Dec-06 06:00 175 0 gusting 5 8.9
2019-Dec-06 05:50 223 0 gusting 7 8.3
2019-Dec-06 05:40 232 1 gusting 7 8.3
2019-Dec-06 05:35 249 1 gusting 7 8.3
2019-Dec-06 05:30 224 1 gusting 6 8.3
2019-Dec-06 05:15 211 0 gusting 8 8.3
2019-Dec-06 05:05 264 1 gusting 7 8.3
2019-Dec-06 04:50 234 1 gusting 10 8.3
2019-Dec-06 04:45 267 1 gusting 10 8.3
2019-Dec-06 04:40 266 1 gusting 7 8.3
2019-Dec-06 04:30 220 1 gusting 12 8.3
2019-Dec-06 04:25 251 2 gusting 12 8.3
2019-Dec-06 04:20 232 2 gusting 9 7.8
2019-Dec-06 04:10 215 1 gusting 8 7.8
2019-Dec-06 04:00 179 2 gusting 8 7.8
2019-Dec-06 03:55 194 2 gusting 8 7.8
2019-Dec-06 03:50 193 2 gusting 9 7.8
2019-Dec-06 03:45 211 2 gusting 11 7.8
2019-Dec-06 03:40 215 1 gusting 11 7.8
2019-Dec-06 03:35 198 1 gusting 7 7.8
2019-Dec-06 03:20 189 1 gusting 6 7.2
2019-Dec-06 03:10 183 2 gusting 9 7.2
2019-Dec-06 03:05 186 1 gusting 8 7.2
2019-Dec-06 03:00 223 1 gusting 6 7.2
2019-Dec-06 02:55 226 1 gusting 8 7.2
2019-Dec-06 02:50 212 1 gusting 8 7.2
2019-Dec-06 02:35 212 1 gusting 11 6.7
2019-Dec-06 02:30 217 1 gusting 11 6.7
2019-Dec-06 02:25 200 1 gusting 7 6.7
2019-Dec-06 02:10 223 1 gusting 9 6.7
2019-Dec-06 01:45 217 1 gusting 8 6.7
2019-Dec-06 01:40 213 1 gusting 6 6.7
2019-Dec-06 01:35 225 1 gusting 7 6.7
2019-Dec-06 01:25 227 1 gusting 6 6.1
2019-Dec-06 01:15 232 1 gusting 8 6.1
2019-Dec-06 01:10 211 1 gusting 6 6.1
2019-Dec-06 01:00 236 1 gusting 6 6.1
2019-Dec-06 00:55 220 1 gusting 6 6.1
2019-Dec-06 00:50 217 1 gusting 6 6.1
2019-Dec-06 00:45 232 2 gusting 6 6.1
2019-Dec-06 00:30 193 1 gusting 6 6.1
2019-Dec-06 00:25 184 1 gusting 6 6.1
2019-Dec-06 00:05 226 1 gusting 6 6.1
2019-Dec-05 23:55 212 1 gusting 6 6.1
2019-Dec-05 23:40 203 1 gusting 7 6.1
2019-Dec-05 23:35 191 1 gusting 7 6.1
2019-Dec-05 23:30 197 1 gusting 6 6.1
2019-Dec-05 23:25 209 1 gusting 9 6.1
2019-Dec-05 23:20 203 1 gusting 9 6.1
2019-Dec-05 23:05 215 1 gusting 9 6.1
2019-Dec-05 23:00 230 1 gusting 6 6.7
2019-Dec-05 22:55 227 1 gusting 6 6.7
2019-Dec-05 22:45 215 1 gusting 10 6.7
2019-Dec-05 22:40 217 1 gusting 10 6.7
2019-Dec-05 22:30 205 1 gusting 6 6.7
2019-Dec-05 22:20 217 2 gusting 7 7.2
2019-Dec-05 22:15 209 2 gusting 9 7.2
2019-Dec-05 22:10 218 1 gusting 9 7.2
2019-Dec-05 21:50 201 2 gusting 9 7.2
2019-Dec-05 21:45 196 1 gusting 9 7.2
2019-Dec-05 21:35 216 2 gusting 16 7.2
2019-Dec-05 21:15 188 1 gusting 9 7.2
2019-Dec-05 21:10 193 2 gusting 8 7.2
2019-Dec-05 21:05 193 2 gusting 8 7.2
2019-Dec-05 20:50 204 2 gusting 8 7.2
2019-Dec-05 20:40 204 2 gusting 6 7.2
2019-Dec-05 20:35 236 2 gusting 14 7.2
2019-Dec-05 20:10 212 1 gusting 6 7.2
2019-Dec-05 20:05 217 1 gusting 8 7.2
2019-Dec-05 19:55 225 2 gusting 13 7.2
2019-Dec-05 19:45 204 1 gusting 8 7.2
2019-Dec-05 19:35 208 1 gusting 6 7.2
2019-Dec-05 19:15 168 1 gusting 6 7.2
2019-Dec-05 19:00 250 1 gusting 9 7.2
2019-Dec-05 18:55 236 1 gusting 7 7.2
2019-Dec-05 18:45 243 1 gusting 9 7.2
2019-Dec-05 18:40 235 0 gusting 7 7.2
2019-Dec-05 18:30 184 0 gusting 5 7.2
2019-Dec-05 18:25 220 1 gusting 7 7.2
2019-Dec-05 17:55 234 2 gusting 11 6.7
2019-Dec-05 17:50 217 1 gusting 9 6.7
2019-Dec-05 17:20 176 1 gusting 6 6.7
2019-Dec-05 17:15 166 1 gusting 6 6.7
2019-Dec-05 17:05 230 1 gusting 6 6.7
2019-Dec-05 17:00 248 1 gusting 7 6.7
2019-Dec-05 16:55 240 1 gusting 7 6.7
2019-Dec-05 16:40 193 1 gusting 6 6.7
2019-Dec-05 16:30 176 0 gusting 4 7.2
2019-Dec-05 16:20 216 0 gusting 6 7.2
2019-Dec-05 16:10 187 1 gusting 4 7.2
2019-Dec-05 16:00 227 1 gusting 6 7.2
2019-Dec-05 15:55 204 1 gusting 6 7.2
2019-Dec-05 15:50 178 0 gusting 5 7.2
2019-Dec-05 15:40 239 1 gusting 6 7.2
2019-Dec-05 15:20 214 1 gusting 6 7.2
2019-Dec-05 15:15 243 1 gusting 8 7.2
2019-Dec-05 15:10 224 1 gusting 8 7.2
2019-Dec-05 15:00 189 1 gusting 4 7.2